RPA1042 KATL-KCHA

Flight info

Callsign RPA1042
Flight time N/A
Altitude 12000
Route PENCL2 PENCL
Aircraft CRJ9/M-SDFGIRWY/S

Departure

Time 2026-05-07 01:24
Airport Hartsfield Jackson Atlanta International Airport (KATL)

Arrival

Time N/A
Airport Chattanooga Metropolitan Airport (Lovell Field) (KCHA)
Time Latitude Longitude Altitude Speed Heading
2026-05-07 00:57 33.63969 -84.43863 1004 ft 0 kts 269°
2026-05-07 01:10 33.63969 -84.43854 1004 ft 4 kts 271°
2026-05-07 01:10 33.63966 -84.43822 1004 ft 4 kts 285°
2026-05-07 01:11 33.63954 -84.43796 1004 ft 4 kts 317°
2026-05-07 01:11 33.63936 -84.43787 1004 ft 1 kts
2026-05-07 01:13 33.63939 -84.43787 1004 ft 1 kts
2026-05-07 01:13 33.63949 -84.43787 1004 ft 2 kts
2026-05-07 01:14 33.63968 -84.43787 1004 ft 3 kts
2026-05-07 01:14 33.64007 -84.43787 1004 ft 7 kts
2026-05-07 01:14 33.64068 -84.43787 1004 ft 9 kts
2026-05-07 01:14 33.64134 -84.43787 1004 ft 10 kts
2026-05-07 01:15 33.64205 -84.43787 1004 ft 11 kts
2026-05-07 01:15 33.64276 -84.43787 1004 ft 4 kts
2026-05-07 01:15 33.64315 -84.43787 1004 ft 7 kts
2026-05-07 01:15 33.64366 -84.43787 1004 ft 8 kts
2026-05-07 01:16 33.64428 -84.43787 1004 ft 9 kts
2026-05-07 01:16 33.64459 -84.43741 1004 ft 7 kts 80°
2026-05-07 01:16 33.64461 -84.43678 1004 ft 8 kts 89°
2026-05-07 01:16 33.64462 -84.43613 1005 ft 8 kts 91°
2026-05-07 01:17 33.64461 -84.43545 1005 ft 8 kts 90°
2026-05-07 01:17 33.64461 -84.43451 1005 ft 13 kts 90°
2026-05-07 01:17 33.64461 -84.43329 1005 ft 16 kts 90°
2026-05-07 01:17 33.64461 -84.43197 1005 ft 16 kts 90°
2026-05-07 01:18 33.64460 -84.43061 1005 ft 16 kts 90°
2026-05-07 01:18 33.64460 -84.42925 1005 ft 16 kts 90°
2026-05-07 01:18 33.64462 -84.42787 1004 ft 17 kts 85°
2026-05-07 01:18 33.64469 -84.42648 1004 ft 17 kts 90°
2026-05-07 01:19 33.64469 -84.42507 1004 ft 17 kts 89°
2026-05-07 01:19 33.64470 -84.42366 1004 ft 17 kts 90°
2026-05-07 01:19 33.64476 -84.42259 1004 ft 9 kts 71°
2026-05-07 01:19 33.64509 -84.42186 1004 ft 10 kts 60°
2026-05-07 01:20 33.64541 -84.42105 1004 ft 13 kts 76°
2026-05-07 01:20 33.64543 -84.41980 1004 ft 16 kts 90°
2026-05-07 01:20 33.64543 -84.41840 1004 ft 17 kts 90°
2026-05-07 01:20 33.64543 -84.41698 1005 ft 16 kts 90°
2026-05-07 01:21 33.64542 -84.41562 1005 ft 16 kts 90°
2026-05-07 01:21 33.64542 -84.41425 1005 ft 17 kts 90°
2026-05-07 01:21 33.64542 -84.41287 1005 ft 17 kts 90°
2026-05-07 01:21 33.64542 -84.41137 1005 ft 18 kts 90°
2026-05-07 01:22 33.64542 -84.40982 1004 ft 19 kts 90°
2026-05-07 01:22 33.64550 -84.40826 1004 ft 19 kts 71°
2026-05-07 01:22 33.64569 -84.40682 1004 ft 17 kts 89°
2026-05-07 01:22 33.64601 -84.40576 1003 ft 10 kts 15°
2026-05-07 01:23 33.64662 -84.40577 1002 ft 8 kts 345°
2026-05-07 01:23 33.64679 -84.40632 1002 ft 15 kts 269°
2026-05-07 01:23 33.64678 -84.41061 1005 ft 90 kts 270°
2026-05-07 01:23 33.64676 -84.42102 1003 ft 156 kts 268°
2026-05-07 01:24 33.64717 -84.43530 1438 ft 182 kts 277°
2026-05-07 01:24 33.64992 -84.45073 2175 ft 196 kts 280°
2026-05-07 01:24 33.65391 -84.46764 2701 ft 235 kts 291°
2026-05-07 01:24 33.66621 -84.48342 3021 ft 281 kts 325°
2026-05-07 01:25 33.68521 -84.49235 3708 ft 304 kts 335°
2026-05-07 01:25 33.70541 -84.50219 4393 ft 321 kts 326°
2026-05-07 01:25 33.72101 -84.51931 5041 ft 284 kts 296°
2026-05-07 01:25 33.72986 -84.53862 5652 ft 250 kts 292°
2026-05-07 01:26 33.73781 -84.55750 6317 ft 258 kts 290°
2026-05-07 01:26 33.74557 -84.57697 7080 ft 260 kts 290°
2026-05-07 01:26 33.75310 -84.59669 7832 ft 255 kts 288°
2026-05-07 01:26 33.76094 -84.61555 8604 ft 255 kts 298°
2026-05-07 01:27 33.77175 -84.63290 9421 ft 260 kts 297°
2026-05-07 01:27 33.77698 -84.65288 10225 ft 250 kts 270°